| time (UTC) | temp C | wind direction | speed KPH | gust KPH | rain 1hr cm | rain 24hr cm | rain mn cm | humidity % | barometer mb |
| 20260504081549 | 12 | 242 | 1.6 | 4.8 | 0.00 | 0.03 | 0.00 | 71 | 1012.6 |
| 20260504044539 | 12 | 165 | 0.0 | 3.2 | 0.00 | 0.03 | 0.03 | 68 | 1014.4 |
| 20260504043038 | 12 | 0 | 0.0 | 1.6 | 0.00 | 0.03 | 0.03 | 68 | 1014.6 |
| 20260504041547 | 12 | 179 | 0.0 | 3.2 | 0.00 | 0.03 | 0.03 | 68 | 1014.6 |
| 20260504040045 | 12 | 0 | 0.0 | 3.2 | 0.00 | 0.03 | 0.03 | 69 | 1014.8 |
| 20260504034542 | 12 | 0 | 0.0 | 1.6 | 0.00 | 0.03 | 0.03 | 67 | 1015.0 |
| 20260504033040 | 13 | 169 | 0.0 | 3.2 | 0.00 | 0.03 | 0.03 | 65 | 1015.0 |
| 20260504031539 | 13 | 0 | 0.0 | 0.0 | 0.00 | 0.03 | 0.03 | 63 | 1015.2 |
| 20260504030049 | 14 | 0 | 0.0 | 3.2 | 0.00 | 0.03 | 0.03 | 61 | 1015.2 |
| 20260504024543 | 15 | 181 | 0.0 | 3.2 | 0.00 | 0.03 | 0.03 | 60 | 1014.9 |
| 20260504023042 | 15 | 206 | 1.6 | 8.0 | 0.00 | 0.03 | 0.03 | 58 | 1014.7 |
| 20260504021550 | 15 | 195 | 0.0 | 8.0 | 0.00 | 0.03 | 0.03 | 57 | 1014.6 |
| 20260504020047 | 15 | 129 | 3.2 | 9.7 | 0.00 | 0.03 | 0.03 | 56 | 1014.2 |
| 20260504014556 | 15 | 186 | 4.8 | 9.7 | 0.00 | 0.03 | 0.03 | 56 | 1014.3 |
| 20260504013047 | 15 | 172 | 1.6 | 8.0 | 0.00 | 0.03 | 0.03 | 56 | 1014.4 |
| 20260504011542 | 16 | 191 | 1.6 | 4.8 | 0.00 | 0.03 | 0.03 | 54 | 1014.7 |
| 20260504010041 | 16 | 206 | 1.6 | 6.4 | 0.00 | 0.03 | 0.03 | 53 | 1014.9 |
| 20260504004540 | 17 | 233 | 3.2 | 6.4 | 0.00 | 0.03 | 0.03 | 51 | 1014.7 |
| 20260504003047 | 17 | 206 | 3.2 | 8.0 | 0.00 | 0.03 | 0.03 | 49 | 1014.8 |
| 20260504001553 | 18 | 262 | 1.6 | 11.3 | 0.00 | 0.03 | 0.03 | 49 | 1014.8 |
| 20260504000048 | 18 | 179 | 4.8 | 11.3 | 0.00 | 0.03 | 0.03 | 47 | 1014.5 |
| 20260503234541 | 19 | 212 | 4.8 | 11.3 | 0.00 | 0.03 | 0.03 | 45 | 1014.9 |
| 20260503233056 | 19 | 195 | 4.8 | 14.5 | 0.00 | 0.03 | 0.03 | 44 | 1015.0 |
| 20260503231543 | 20 | 241 | 8.0 | 20.9 | 0.00 | 0.03 | 0.03 | 43 | 1015.2 |
| 20260503230047 | 20 | 210 | 3.2 | 19.3 | 0.00 | 0.03 | 0.03 | 43 | 1015.4 |
| 20260503224545 | 20 | 202 | 3.2 | 19.3 | 0.00 | 0.03 | 0.03 | 43 | 1015.3 |
| 20260503223042 | 20 | 193 | 8.0 | 19.3 | 0.00 | 0.03 | 0.03 | 42 | 1015.6 |
| 20260503221549 | 20 | 341 | 3.2 | 12.9 | 0.00 | 0.03 | 0.03 | 42 | 1015.9 |
| 20260503214546 | 20 | 167 | 6.4 | 14.5 | 0.00 | 0.03 | 0.03 | 43 | 1016.5 |
| 20260503213049 | 20 | 182 | 3.2 | 14.5 | 0.00 | 0.03 | 0.03 | 45 | 1016.7 |
| 20260503211542 | 20 | 217 | 4.8 | 16.1 | 0.00 | 0.03 | 0.03 | 45 | 1016.8 |
| 20260503210056 | 20 | 183 | 9.7 | 17.7 | 0.00 | 0.03 | 0.03 | 43 | 1017.2 |
| 20260503204558 | 20 | 333 | 3.2 | 16.1 | 0.00 | 0.23 | 0.03 | 43 | 1017.5 |
| 20260503203049 | 20 | 175 | 8.0 | 17.7 | 0.00 | 0.23 | 0.03 | 44 | 1017.8 |
| 20260503201546 | 19 | 146 | 4.8 | 16.1 | 0.00 | 0.23 | 0.03 | 44 | 1018.1 |
| 20260503200046 | 19 | 194 | 3.2 | 16.1 | 0.00 | 0.23 | 0.03 | 43 | 1018.6 |
| 20260503194540 | 18 | 231 | 8.0 | 17.7 | 0.00 | 0.23 | 0.03 | 41 | 1018.7 |
| 20260503193039 | 19 | 278 | 4.8 | 16.1 | 0.00 | 0.23 | 0.03 | 44 | 1019.1 |
| 20260503191538 | 18 | 219 | 4.8 | 17.7 | 0.00 | 0.23 | 0.03 | 46 | 1019.5 |
| 20260503190052 | 18 | 148 | 3.2 | 12.9 | 0.00 | 0.23 | 0.03 | 46 | 1019.9 |
| 20260503184544 | 18 | 190 | 6.4 | 19.3 | 0.00 | 0.23 | 0.03 | 44 | 1020.0 |
| 20260503183059 | 18 | 141 | 8.0 | 24.1 | 0.00 | 0.23 | 0.03 | 47 | 1020.2 |
| 20260503181538 | 18 | 310 | 6.4 | 16.1 | 0.00 | 0.23 | 0.03 | 45 | 1020.5 |
| 20260503180058 | 17 | 250 | 4.8 | 16.1 | 0.00 | 0.23 | 0.03 | 50 | 1020.6 |
| 20260503174544 | 17 | 334 | 4.8 | 14.5 | 0.00 | 0.23 | 0.03 | 46 | 1020.9 |
| 20260503173120 | 17 | 285 | 4.8 | 11.3 | 0.00 | 0.23 | 0.03 | 47 | 1021.0 |
| 20260503171545 | 16 | 265 | 3.2 | 16.1 | 0.00 | 0.23 | 0.03 | 47 | 1021.3 |